Flag for China Weather past 2 weeks in Fushun, Liaoning, China

Now
84 °F

Sunny.


Feels Like: 83 °F
Forecast: 62 / 87 °F
Wind: 3 mph from South

Location: Shenyang / Taoxian

Current Time: Jul 6, 2015 at 5:39:24 PM

Latest Report: Jul 6, 2015 at 5:00 PM


Visibility: 10 mi

Pressure: 29.80 "Hg

Humidity: 37%

Dew point: 55 °F

Location of FushunLocation

Historic Weather in Fushun — Graph

°F

Fushun temperature yesterday

Maximum temperature yesterday: 84 °F (at 2:00 PM)
Minimum temperature yesterday: 61 °F (at 3:00 AM)
Average temperature yesterday: 72 °F

Past Weeks' High & Low Weather Summary

 TemperatureHumidityPressure
High88 °F (Jun 28, 2:30 PM)100% (Jun 30, 3:00 AM)29.92 "Hg (Jun 30, 3:00 AM)
Low54 °F (Jun 30, 3:30 AM)37% (Jul 4, 4:00 PM)29.30 "Hg (Jul 1, 2:00 AM)
Average72 °F68%29.69 "Hg
* Reported Jun 21 4:00 PM — Jul 6 4:30 PM, Fushun, Weather by CustomWeather, © 2015

Note: Actual official high and low records may vary slightly from our data, if they occured in-between our weather recording intervals... More about our weather records

Advertising

Fushun weather history for previous 24 hours

 ConditionsComfort  
Time TempWeatherWind HumidityBarometerVisibility
4:30 PM
Mon, Jul 6
84 °FPassing clouds.3 mph40%29.80 "HgN/A
4:00 PM84 °FSunny.6 mph37%29.80 "Hg10 mi
3:30 PM84 °FPassing clouds.3 mph40%29.83 "HgN/A
3:00 PM84 °FSunny.3 mph43%29.83 "Hg10 mi
2:30 PM84 °FPassing clouds.3 mph40%29.83 "HgN/A
2:00 PM84 °FPassing clouds.6 mph43%29.83 "HgN/A
1:30 PM84 °FPassing clouds.3 mph43%29.86 "HgN/A
1:00 PM82 °FPassing clouds.6 mph42%29.86 "HgN/A
12:30 PM82 °FPassing clouds.6 mph42%29.86 "HgN/A
12:00 PM82 °FPassing clouds.3 mph42%29.86 "HgN/A
11:30 AM81 °FPassing clouds.3 mph48%29.89 "HgN/A
11:00 AM81 °FSunny.3 mph48%29.89 "Hg10 mi
10:30 AM79 °FPassing clouds.6 mph48%29.89 "HgN/A
10:00 AM79 °FSunny.3 mph58%29.89 "Hg10 mi
9:30 AM79 °FSunny.1 mph54%29.89 "Hg10 mi
9:00 AM77 °FSunny.1 mph57%29.89 "Hg10 mi
8:30 AM77 °FSunny.1 mph54%29.89 "Hg10 mi
8:00 AM75 °FPassing clouds.3 mph65%29.89 "HgN/A
7:30 AM72 °FPassing clouds.3 mph73%29.92 "HgN/A
7:00 AM70 °FSunny.3 mph78%29.89 "Hg10 mi
6:30 AM68 °FPassing clouds.3 mph78%29.89 "HgN/A
6:00 AM66 °FSunny.3 mph83%29.89 "Hg10 mi
5:30 AM64 °FSunny.1 mph88%29.89 "Hg10 mi
5:00 AM63 °FSunny.3 mph88%29.89 "Hg10 mi
4:30 AM63 °FPassing clouds.3 mph88%29.89 "HgN/A
4:00 AM63 °FClear.6 mph88%29.89 "Hg10 mi
3:30 AM63 °FPassing clouds.3 mph88%29.89 "HgN/A
3:00 AM63 °FClear.1 mph88%29.89 "Hg10 mi
2:30 AM64 °FClear.3 mph83%29.89 "Hg10 mi
2:00 AM64 °FClear.3 mph83%29.89 "Hg10 mi
1:30 AM66 °FClear.3 mph78%29.89 "Hg10 mi
1:00 AM64 °FClear.1 mph83%29.89 "Hg10 mi
12:30 AM66 °FClear.3 mph83%29.89 "Hg10 mi
12:00 AM66 °FPassing clouds.3 mph83%29.89 "HgN/A
11:30 PM
Sun, Jul 5
66 °FClear.3 mph83%29.89 "Hg10 mi
11:00 PM66 °FClear.1 mph83%29.89 "Hg10 mi
10:30 PM66 °FClear.No wind88%29.89 "Hg10 mi
10:00 PM66 °FClear.1 mph88%29.86 "Hg10 mi
9:30 PM70 °FClear.3 mph73%29.86 "Hg10 mi
9:00 PM72 °FClear.3 mph65%29.86 "Hg10 mi
8:30 PM72 °FClear.3 mph61%29.86 "Hg10 mi
8:00 PM72 °FClear.1 mph65%29.83 "Hg10 mi
7:30 PM73 °FClear.1 mph61%29.86 "Hg10 mi
7:00 PM73 °FSunny.1 mph65%29.83 "Hg10 mi
6:30 PM75 °FPassing clouds.3 mph61%29.83 "HgN/A
6:00 PM75 °FPassing clouds.3 mph57%29.83 "HgN/A
5:30 PM75 °FPassing clouds.6 mph54%29.83 "HgN/A
5:00 PM77 °FPassing clouds.6 mph51%29.80 "HgN/A
Weather by CustomWeather, © 2015

See weather overviewHow to use our weather pages